Moses Lake, WA

2:04 AM PDT on March 24, 2017 (GMT -0700)
Grant County International

Weather History for KMWH - March, 2013

Change the Weather History Date:

Saturday, March 16, 2013

  Actual Average Record
Temperature  
Mean Temperature 48 °F 44 °F  
Max Temperature 58 °F 56 °F 68 °F (2004)
Min Temperature 37 °F 32 °F 25 °F (1982)
Degree Days  
Heating Degree Days 17 21  
Month to date heating degree days 312 375  
Since 1 July heating degree days 4431 4880  
Cooling Degree Days 0 0  
Month to date cooling degree days 0 0  
Year to date cooling degree days 0 0  
Moisture  
Dew Point 33 °F    
Average Humidity 61    
Maximum Humidity 85    
Minimum Humidity 37    
Precipitation  
Precipitation T in 0.03 in 0.20 in (1981)
Month to date precipitation 0.51 0.34  
Year to date precipitation 0.96 2.28  
Sea Level Pressure  
Sea Level Pressure 29.92 in    
Wind  
Wind Speed 11 mph (SW)    
Max Wind Speed 31 mph    
Max Gust Speed 39 mph    
Visibility 10 miles    
Events      
T = Trace of Precipitation, MM = Missing Value Source: NWS Daily Summary

Daily Weather History Graph

Daily Weather History Graph

Search for Another Location

Airport or City:

Trip Planner

Search our weather history database for the weather conditions in past years. The results will help you decide how hot, cold, wet, or windy it might be!

Date:

Astronomy

Mar. 16, 2013 Rise Set
Actual Time 7:07 AM PDT 7:04 PM PDT
Civil Twilight 6:37 AM PDT 7:35 PM PDT
Nautical Twilight 6:01 AM PDT 8:11 PM PDT
Astronomical Twilight 5:25 AM PDT 8:47 PM PDT
Moon 9:20 AM PDT (3/16) No Moon Set
Length of Visible Light 12h 58m
Length of Day
11h 57m
Waxing Crescent, 24% of the Moon is Illuminated
Mar 16
Waxing Crescent
Mar 19
First Quarter
Mar 27
Full
Apr 2
Last Quarter
Apr 10
New

Hourly Weather History & Observations

Time (PDT) Temp. Windchill Dew Point Humidity Pressure Visibility Wind Dir Wind Speed Gust Speed Precip Events Conditions
12:52 AM 48.9 °F - 36.0 °F 61% 30.04 in 10.0 mi West 3.5 mph - N/A   Mostly Cloudy
1:52 AM 48.9 °F - 35.1 °F 59% 30.03 in 10.0 mi SW 8.1 mph - N/A   Clear
2:52 AM 44.1 °F - 35.1 °F 71% 30.03 in 10.0 mi Calm Calm - N/A   Clear
3:52 AM 39.9 °F 35.8 °F 33.1 °F 77% 30.02 in 10.0 mi SE 5.8 mph - N/A   Clear
4:52 AM 39.9 °F 35.8 °F 34.0 °F 79% 30.01 in 10.0 mi SSE 5.8 mph - N/A   Clear
5:52 AM 41.0 °F 36.4 °F 34.0 °F 76% 29.99 in 10.0 mi South 6.9 mph - N/A   Clear
6:52 AM 37.9 °F 35.5 °F 33.1 °F 83% 29.98 in 10.0 mi SSE 3.5 mph - N/A   Clear
7:52 AM 46.9 °F - 34.0 °F 61% 29.96 in 10.0 mi South 10.4 mph - N/A   Clear
8:52 AM 46.9 °F - 34.0 °F 61% 29.97 in 10.0 mi South 6.9 mph - N/A   Clear
9:52 AM 48.0 °F - 37.0 °F 66% 29.96 in 10.0 mi South 8.1 mph - N/A   Clear
10:52 AM 50.0 °F - 37.9 °F 63% 29.95 in 10.0 mi SW 8.1 mph - N/A   Clear
11:52 AM 55.0 °F - 36.0 °F 49% 29.93 in 10.0 mi SSW 11.5 mph - N/A   Clear
12:52 PM 55.9 °F - 35.1 °F 45% 29.89 in 10.0 mi SSW 13.8 mph 24.2 mph N/A   Clear
1:52 PM 55.9 °F - 33.1 °F 42% 29.87 in 10.0 mi SW 17.3 mph - N/A   Clear
2:52 PM 55.0 °F - 32.0 °F 42% 29.83 in 10.0 mi WSW 16.1 mph - N/A   Scattered Clouds
3:52 PM 55.0 °F - 32.0 °F 42% 29.81 in 10.0 mi SSW 11.5 mph - N/A   Overcast
4:52 PM 55.9 °F - 34.0 °F 44% 29.78 in 10.0 mi South 10.4 mph - N/A   Mostly Cloudy
5:49 PM 51.8 °F - 35.6 °F 54% 29.76 in 10.0 mi WNW 13.8 mph - 0.00 in   Mostly Cloudy
5:52 PM 51.1 °F - 37.0 °F 59% 29.91 in 10.0 mi WNW 15.0 mph - 0.00 in   Scattered Clouds
6:52 PM 50.0 °F - 36.0 °F 59% 29.76 in 10.0 mi West 9.2 mph - N/A   Clear
7:52 PM 48.9 °F - 28.0 °F 44% 29.75 in 10.0 mi West 23.0 mph 31.1 mph N/A   Mostly Cloudy
8:52 PM 46.9 °F - 21.9 °F 37% 29.91 in 10.0 mi WSW 12.7 mph - N/A   Overcast
9:52 PM 43.0 °F 34.8 °F 23.0 °F 45% 29.91 in 10.0 mi West 18.4 mph 31.1 mph N/A   Partly Cloudy
10:52 PM 41.0 °F 32.8 °F 25.0 °F 53% 29.94 in 10.0 mi West 16.1 mph - N/A   Clear
11:52 PM 39.0 °F 29.9 °F 24.1 °F 55% 29.97 in 10.0 mi West 17.3 mph - N/A   Clear